contact:dominique.lefevre@mio.osupytheas.fr, maurice.libes@osupytheas.fr, didier.mallarino@osupytheas.fr
Project:EMSO http://www.emso-fr.org/EMSO-France
Depth: 2436.0 m
Title:EMSO Ligure Ouest : Data MII capteur CSTAR
DateTime,Latitude,Longitude,Instrument_Serial,Reference_Counts,Signal_Counts,Corrected_Signal_raw_counts,Calculated_Beam_c_inverse_meters,Internal_thermistor_counts
DateTime,Latitude,Longitude,Instrument_Serial,Reference_Counts,Signal_Counts,Corrected_Signal_raw_counts,Calculated_Beam_c_inverse_meters,Internal_thermistor_counts
2023-11-18T00:00:21,42.805,6.029,CST-1368DR,4106,4332,11180,01.337,553
2023-11-18T00:03:22,42.805,6.029,CST-1368DR,4106,4332,11179,01.337,553
2023-11-18T00:06:24,42.805,6.029,CST-1368DR,4106,4334,11186,01.335,552
2023-11-18T00:09:25,42.805,6.029,CST-1368DR,4106,4334,11184,01.335,553
2023-11-18T00:12:27,42.805,6.029,CST-1368DR,4106,4333,11182,01.336,553
2023-11-18T00:15:29,42.805,6.029,CST-1368DR,4106,4331,11178,01.337,553
2023-11-18T00:18:30,42.805,6.029,CST-1368DR,4106,4331,11178,01.337,553
2023-11-18T00:21:32,42.805,6.029,CST-1368DR,4106,4332,11180,01.337,553
2023-11-18T00:24:33,42.805,6.029,CST-1368DR,4106,4332,11181,01.336,553
2023-11-18T00:27:35,42.805,6.029,CST-1368DR,4106,4332,11180,01.337,553
2023-11-18T00:30:36,42.805,6.029,CST-1368DR,4106,4331,11178,01.337,553
2023-11-18T00:33:38,42.805,6.029,CST-1368DR,4106,4334,11184,01.335,553
2023-11-18T00:36:40,42.805,6.029,CST-1368DR,4106,4331,11177,01.338,553
2023-11-18T00:39:41,42.805,6.029,CST-1368DR,4106,4336,11189,01.333,553
2023-11-18T00:42:43,42.805,6.029,CST-1368DR,4106,4332,11180,01.337,553
2023-11-18T00:45:44,42.805,6.029,CST-1368DR,4106,4333,11184,01.335,553
2023-11-18T00:48:46,42.805,6.029,CST-1368DR,4106,4331,11177,01.338,553
2023-11-18T00:51:48,42.805,6.029,CST-1368DR,4106,4331,11177,01.338,553
2023-11-18T00:54:49,42.805,6.029,CST-1368DR,4106,4348,11222,01.322,553
2023-11-18T00:57:51,42.805,6.029,CST-1368DR,4106,4351,11229,01.319,553
2023-11-18T01:00:52,42.805,6.029,CST-1368DR,4106,4352,11231,01.318,553
2023-11-18T01:03:54,42.805,6.029,CST-1368DR,4106,4352,11231,01.318,552
2023-11-18T01:06:55,42.805,6.029,CST-1368DR,4106,4352,11231,01.318,553
2023-11-18T01:09:57,42.805,6.029,CST-1368DR,4106,4352,11231,01.318,553
2023-11-18T01:12:59,42.805,6.029,CST-1368DR,4106,4352,11232,01.318,553
2023-11-18T01:16:00,42.805,6.029,CST-1368DR,4106,4353,11234,01.317,553
2023-11-18T01:19:02,42.805,6.029,CST-1368DR,4106,4353,11234,01.317,553
2023-11-18T01:22:03,42.805,6.029,CST-1368DR,4106,4353,11234,01.317,553
2023-11-18T01:25:05,42.805,6.029,CST-1368DR,4106,4353,11234,01.317,553
2023-11-18T01:28:06,42.805,6.029,CST-1368DR,4106,4353,11233,01.318,553
2023-11-18T01:31:08,42.805,6.029,CST-1368DR,4106,4352,11233,01.318,553
2023-11-18T01:34:10,42.805,6.029,CST-1368DR,4106,4353,11234,01.317,553
2023-11-18T01:37:11,42.805,6.029,CST-1368DR,4106,4353,11233,01.318,553
2023-11-18T01:40:13,42.805,6.029,CST-1368DR,4106,4352,11231,01.318,553
2023-11-18T01:43:14,42.805,6.029,CST-1368DR,4106,4352,11231,01.318,553
2023-11-18T01:46:16,42.805,6.029,CST-1368DR,4106,4352,11231,01.318,553
2023-11-18T01:49:17,42.805,6.029,CST-1368DR,4106,4352,11232,01.318,553
2023-11-18T01:52:19,42.805,6.029,CST-1368DR,4106,4352,11231,01.318,553
2023-11-18T01:55:21,42.805,6.029,CST-1368DR,4106,4352,11231,01.318,553
2023-11-18T01:58:22,42.805,6.029,CST-1368DR,4106,4353,11234,01.317,553
2023-11-18T02:01:24,42.805,6.029,CST-1368DR,4106,4352,11231,01.318,553
2023-11-18T02:04:25,42.805,6.029,CST-1368DR,4106,4352,11231,01.318,553
2023-11-18T02:07:27,42.805,6.029,CST-1368DR,4106,4352,11231,01.318,553
2023-11-18T02:10:29,42.805,6.029,CST-1368DR,4106,4352,11233,01.318,553
2023-11-18T02:13:30,42.805,6.029,CST-1368DR,4106,4352,11231,01.318,553
2023-11-18T02:16:32,42.805,6.029,CST-1368DR,4106,4352,11232,01.318,553
2023-11-18T02:19:33,42.805,6.029,CST-1368DR,4106,4352,11231,01.318,553
2023-11-18T02:22:35,42.805,6.029,CST-1368DR,4106,4351,11229,01.319,553
2023-11-18T02:25:36,42.805,6.029,CST-1368DR,4106,4352,11232,01.318,553
2023-11-18T02:28:38,42.805,6.029,CST-1368DR,4106,4352,11233,01.318,553
2023-11-18T02:31:40,42.805,6.029,CST-1368DR,4106,4351,11230,01.319,553
2023-11-18T02:34:41,42.805,6.029,CST-1368DR,4106,4352,11233,01.318,553
2023-11-18T02:37:43,42.805,6.029,CST-1368DR,4106,4351,11230,01.319,553
2023-11-18T02:40:44,42.805,6.029,CST-1368DR,4106,4351,11229,01.319,553
2023-11-18T02:43:46,42.805,6.029,CST-1368DR,4106,4351,11229,01.319,553
2023-11-18T02:46:48,42.805,6.029,CST-1368DR,4106,4351,11230,01.319,553
2023-11-18T02:49:49,42.805,6.029,CST-1368DR,4106,4352,11231,01.318,553
2023-11-18T02:52:51,42.805,6.029,CST-1368DR,4106,4352,11232,01.318,553
2023-11-18T02:55:52,42.805,6.029,CST-1368DR,4106,4353,11233,01.318,553
2023-11-18T02:58:54,42.805,6.029,CST-1368DR,4106,4352,11231,01.318,553
2023-11-18T03:01:55,42.805,6.029,CST-1368DR,4106,4353,11233,01.318,553
2023-11-18T03:04:57,42.805,6.029,CST-1368DR,4106,4351,11229,01.319,553
2023-11-18T03:07:59,42.805,6.029,CST-1368DR,4106,4350,11227,01.320,553
2023-11-18T03:11:00,42.805,6.029,CST-1368DR,4106,4350,11227,01.320,553
2023-11-18T03:14:02,42.805,6.029,CST-1368DR,4106,4351,11229,01.319,553
2023-11-18T03:17:03,42.805,6.029,CST-1368DR,4106,4351,11229,01.319,553
2023-11-18T03:20:05,42.805,6.029,CST-1368DR,4106,4351,11229,01.319,553
2023-11-18T03:23:06,42.805,6.029,CST-1368DR,4106,4352,11231,01.318,553
2023-11-18T03:26:08,42.805,6.029,CST-1368DR,4106,4353,11234,01.317,553
2023-11-18T03:29:10,42.805,6.029,CST-1368DR,4106,4352,11231,01.318,552
2023-11-18T03:32:11,42.805,6.029,CST-1368DR,4106,4351,11229,01.319,553
2023-11-18T03:35:13,42.805,6.029,CST-1368DR,4106,4352,11231,01.318,553
2023-11-18T03:38:14,42.805,6.029,CST-1368DR,4106,4351,11230,01.319,553
2023-11-18T03:41:16,42.805,6.029,CST-1368DR,4106,4352,11232,01.318,553
2023-11-18T03:44:17,42.805,6.029,CST-1368DR,4106,4351,11229,01.319,553
2023-11-18T03:47:19,42.805,6.029,CST-1368DR,4106,4351,11230,01.319,553
2023-11-18T03:50:21,42.805,6.029,CST-1368DR,4106,4352,11232,01.318,553
2023-11-18T03:53:22,42.805,6.029,CST-1368DR,4106,4358,11247,01.313,553
2023-11-18T03:56:24,42.805,6.029,CST-1368DR,4106,4352,11231,01.318,552
2023-11-18T03:59:25,42.805,6.029,CST-1368DR,4106,4353,11233,01.318,553
2023-11-18T04:02:27,42.805,6.029,CST-1368DR,4106,4354,11237,01.316,553
2023-11-18T04:05:28,42.805,6.029,CST-1368DR,4106,4355,11240,01.315,553
2023-11-18T04:08:30,42.805,6.029,CST-1368DR,4106,4354,11237,01.316,553
2023-11-18T04:11:32,42.805,6.029,CST-1368DR,4106,4353,11233,01.318,553
2023-11-18T04:14:33,42.805,6.029,CST-1368DR,4106,4353,11235,01.317,553
2023-11-18T04:17:35,42.805,6.029,CST-1368DR,4106,4353,11234,01.317,553
2023-11-18T04:20:36,42.805,6.029,CST-1368DR,4106,4353,11233,01.318,553
2023-11-18T04:23:38,42.805,6.029,CST-1368DR,4106,4354,11236,01.317,553
2023-11-18T04:26:40,42.805,6.029,CST-1368DR,4106,4354,11237,01.316,553
2023-11-18T04:29:41,42.805,6.029,CST-1368DR,4106,4354,11236,01.317,553
2023-11-18T04:32:43,42.805,6.029,CST-1368DR,4106,4352,11233,01.318,553
2023-11-18T04:35:44,42.805,6.029,CST-1368DR,4106,4352,11231,01.318,553
2023-11-18T04:38:46,42.805,6.029,CST-1368DR,4106,4354,11237,01.316,552
2023-11-18T04:41:47,42.805,6.029,CST-1368DR,4106,4352,11233,01.318,553
2023-11-18T04:44:49,42.805,6.029,CST-1368DR,4106,4354,11236,01.317,553
2023-11-18T04:47:51,42.805,6.029,CST-1368DR,4106,4351,11230,01.319,553
2023-11-18T04:50:52,42.805,6.029,CST-1368DR,4106,4355,11238,01.316,553
2023-11-18T04:53:54,42.805,6.029,CST-1368DR,4106,4354,11237,01.316,553
2023-11-18T04:56:55,42.805,6.029,CST-1368DR,4106,4354,11236,01.317,553
2023-11-18T04:59:57,42.805,6.029,CST-1368DR,4106,4354,11238,01.316,553
2023-11-18T05:02:58,42.805,6.029,CST-1368DR,4106,4354,11237,01.316,553
2023-11-18T05:06:00,42.805,6.029,CST-1368DR,4106,4354,11236,01.317,553
2023-11-18T05:09:02,42.805,6.029,CST-1368DR,4106,4353,11234,01.317,553
2023-11-18T05:12:03,42.805,6.029,CST-1368DR,4106,4353,11233,01.318,553
2023-11-18T05:15:05,42.805,6.029,CST-1368DR,4106,4352,11233,01.318,553
2023-11-18T05:18:06,42.805,6.029,CST-1368DR,4106,4353,11233,01.318,553
2023-11-18T05:21:08,42.805,6.029,CST-1368DR,4106,4354,11237,01.316,553
2023-11-18T05:24:10,42.805,6.029,CST-1368DR,4106,4354,11237,01.316,553
2023-11-18T05:27:11,42.805,6.029,CST-1368DR,4106,4355,11238,01.316,553
2023-11-18T05:30:13,42.805,6.029,CST-1368DR,4106,4355,11238,01.316,553
2023-11-18T05:33:14,42.805,6.029,CST-1368DR,4106,4353,11234,01.317,553
2023-11-18T05:36:16,42.805,6.029,CST-1368DR,4106,4355,11240,01.315,553
2023-11-18T05:39:17,42.805,6.029,CST-1368DR,4106,4354,11237,01.316,553
2023-11-18T05:42:19,42.805,6.029,CST-1368DR,4106,4353,11234,01.317,553
2023-11-18T05:45:21,42.805,6.029,CST-1368DR,4106,4354,11237,01.316,553
2023-11-18T05:48:22,42.805,6.029,CST-1368DR,4106,4355,11239,01.316,553
2023-11-18T05:51:24,42.805,6.029,CST-1368DR,4106,4354,11237,01.316,553
2023-11-18T05:54:25,42.805,6.029,CST-1368DR,4106,4355,11239,01.316,553
2023-11-18T05:57:27,42.805,6.029,CST-1368DR,4106,4356,11241,01.315,553
2023-11-18T06:00:29,42.805,6.029,CST-1368DR,4106,4355,11240,01.315,553
2023-11-18T06:03:30,42.805,6.029,CST-1368DR,4106,4352,11232,01.318,553
2023-11-18T06:06:32,42.805,6.029,CST-1368DR,4106,4357,11245,01.313,552
2023-11-18T06:09:33,42.805,6.029,CST-1368DR,4106,4354,11236,01.317,553
2023-11-18T06:12:35,42.805,6.029,CST-1368DR,4106,4354,11236,01.317,553
2023-11-18T06:15:36,42.805,6.029,CST-1368DR,4106,4354,11238,01.316,553
2023-11-18T06:18:38,42.805,6.029,CST-1368DR,4106,4355,11240,01.315,553
2023-11-18T06:21:40,42.805,6.029,CST-1368DR,4106,4356,11242,01.315,553
2023-11-18T06:24:41,42.805,6.029,CST-1368DR,4106,4356,11242,01.315,553
2023-11-18T06:27:43,42.805,6.029,CST-1368DR,4106,4356,11242,01.315,553
2023-11-18T06:30:44,42.805,6.029,CST-1368DR,4106,4354,11238,01.316,553
2023-11-18T06:33:46,42.805,6.029,CST-1368DR,4106,4355,11240,01.315,553
2023-11-18T06:36:47,42.805,6.029,CST-1368DR,4106,4355,11240,01.315,553
2023-11-18T06:39:49,42.805,6.029,CST-1368DR,4106,4355,11240,01.315,553
2023-11-18T06:42:51,42.805,6.029,CST-1368DR,4106,4355,11239,01.316,553
2023-11-18T06:45:52,42.805,6.029,CST-1368DR,4106,4356,11242,01.315,553
2023-11-18T06:48:54,42.805,6.029,CST-1368DR,4106,4356,11241,01.315,553
2023-11-18T06:51:55,42.805,6.029,CST-1368DR,4106,4354,11237,01.316,553
2023-11-18T06:54:57,42.805,6.029,CST-1368DR,4106,4355,11240,01.315,553
2023-11-18T06:57:59,42.805,6.029,CST-1368DR,4106,4356,11242,01.315,553
2023-11-18T07:01:00,42.805,6.029,CST-1368DR,4106,4357,11246,01.313,553
2023-11-18T07:04:02,42.805,6.029,CST-1368DR,4106,4352,11231,01.318,553
2023-11-18T07:07:03,42.805,6.029,CST-1368DR,4106,4358,11246,01.313,553
2023-11-18T07:10:05,42.805,6.029,CST-1368DR,4106,4356,11242,01.315,553
2023-11-18T07:13:06,42.805,6.029,CST-1368DR,4106,4355,11240,01.315,553
2023-11-18T07:16:08,42.805,6.029,CST-1368DR,4106,4356,11243,01.314,552
2023-11-18T07:19:10,42.805,6.029,CST-1368DR,4106,4356,11243,01.314,553
2023-11-18T07:22:11,42.805,6.029,CST-1368DR,4106,4353,11235,01.317,553
2023-11-18T07:25:13,42.805,6.029,CST-1368DR,4106,4354,11238,01.316,553
2023-11-18T07:28:14,42.805,6.029,CST-1368DR,4106,4354,11236,01.317,553
2023-11-18T07:31:18,42.805,6.029,CST-1368DR,4106,4353,11233,01.318,553
2023-11-18T07:34:20,42.805,6.029,CST-1368DR,4106,4355,11239,01.316,553
2023-11-18T07:37:21,42.805,6.029,CST-1368DR,4106,4354,11238,01.316,553
2023-11-18T07:40:23,42.805,6.029,CST-1368DR,4106,4355,11238,01.316,553
2023-11-18T07:43:25,42.805,6.029,CST-1368DR,4106,4356,11242,01.315,553
2023-11-18T07:46:26,42.805,6.029,CST-1368DR,4106,4355,11240,01.315,553
2023-11-18T07:49:28,42.805,6.029,CST-1368DR,4106,4356,11241,01.315,553
2023-11-18T07:52:29,42.805,6.029,CST-1368DR,4106,4356,11241,01.315,553
2023-11-18T07:55:31,42.805,6.029,CST-1368DR,4106,4356,11242,01.315,553
2023-11-18T07:58:32,42.805,6.029,CST-1368DR,4106,4355,11240,01.315,553
2023-11-18T08:01:34,42.805,6.029,CST-1368DR,4106,4356,11241,01.315,553
2023-11-18T08:04:36,42.805,6.029,CST-1368DR,4106,4356,11242,01.315,553
2023-11-18T08:07:37,42.805,6.029,CST-1368DR,4106,4347,11219,01.323,553
2023-11-18T08:10:39,42.805,6.029,CST-1368DR,4106,4364,11263,01.307,553
2023-11-18T08:13:40,42.805,6.029,CST-1368DR,4106,4354,11238,01.316,553
2023-11-18T08:16:42,42.805,6.029,CST-1368DR,4106,4354,11237,01.316,553
2023-11-18T08:19:44,42.805,6.029,CST-1368DR,4106,4354,11238,01.316,553
2023-11-18T08:22:45,42.805,6.029,CST-1368DR,4106,4354,11236,01.317,553
2023-11-18T08:25:47,42.805,6.029,CST-1368DR,4106,4355,11239,01.316,553
2023-11-18T08:28:48,42.805,6.029,CST-1368DR,4106,4354,11238,01.316,553
2023-11-18T08:31:50,42.805,6.029,CST-1368DR,4106,4354,11237,01.316,553
2023-11-18T08:34:51,42.805,6.029,CST-1368DR,4106,4354,11237,01.316,553
2023-11-18T08:37:53,42.805,6.029,CST-1368DR,4106,4355,11240,01.315,553
2023-11-18T08:40:55,42.805,6.029,CST-1368DR,4106,4352,11231,01.318,553
2023-11-18T08:43:56,42.805,6.029,CST-1368DR,4106,4355,11240,01.315,553
2023-11-18T08:46:58,42.805,6.029,CST-1368DR,4106,4355,11238,01.316,553
2023-11-18T08:49:59,42.805,6.029,CST-1368DR,4106,4354,11237,01.316,553
2023-11-18T08:53:01,42.805,6.029,CST-1368DR,4106,4355,11240,01.315,553
2023-11-18T08:56:02,42.805,6.029,CST-1368DR,4106,4347,11219,01.323,553
2023-11-18T08:59:04,42.805,6.029,CST-1368DR,4106,4354,11237,01.316,553
2023-11-18T09:02:06,42.805,6.029,CST-1368DR,4106,4354,11238,01.316,553
2023-11-18T09:05:07,42.805,6.029,CST-1368DR,4106,4354,11237,01.316,553
2023-11-18T09:08:09,42.805,6.029,CST-1368DR,4106,4354,11236,01.317,553
2023-11-18T09:11:10,42.805,6.029,CST-1368DR,4106,4353,11234,01.317,553
2023-11-18T09:14:12,42.805,6.029,CST-1368DR,4106,4354,11237,01.316,553
2023-11-18T09:17:14,42.805,6.029,CST-1368DR,4106,4353,11234,01.317,553
2023-11-18T09:20:15,42.805,6.029,CST-1368DR,4106,4354,11236,01.317,553
2023-11-18T09:23:17,42.805,6.029,CST-1368DR,4106,4354,11238,01.316,553
2023-11-18T09:26:18,42.805,6.029,CST-1368DR,4106,4357,11244,01.314,553
2023-11-18T09:29:20,42.805,6.029,CST-1368DR,4106,4354,11237,01.316,553
2023-11-18T09:32:22,42.805,6.029,CST-1368DR,4106,4355,11238,01.316,553
2023-11-18T09:35:23,42.805,6.029,CST-1368DR,4106,4351,11229,01.319,553
2023-11-18T09:38:25,42.805,6.029,CST-1368DR,4106,4354,11237,01.316,553
2023-11-18T09:41:26,42.805,6.029,CST-1368DR,4106,4354,11236,01.317,553
2023-11-18T09:44:28,42.805,6.029,CST-1368DR,4106,4354,11237,01.316,553
2023-11-18T09:47:29,42.805,6.029,CST-1368DR,4106,4354,11237,01.316,553
2023-11-18T09:50:31,42.805,6.029,CST-1368DR,4106,4351,11229,01.319,553
2023-11-18T09:53:33,42.805,6.029,CST-1368DR,4106,4354,11237,01.316,553
2023-11-18T09:56:34,42.805,6.029,CST-1368DR,4106,4354,11238,01.316,553
2023-11-18T09:59:36,42.805,6.029,CST-1368DR,4106,4354,11237,01.316,553
2023-11-18T10:02:37,42.805,6.029,CST-1368DR,4106,4351,11229,01.319,553
2023-11-18T10:05:39,42.805,6.029,CST-1368DR,4106,4355,11238,01.316,553
2023-11-18T10:08:40,42.805,6.029,CST-1368DR,4106,4354,11237,01.316,553
2023-11-18T10:11:42,42.805,6.029,CST-1368DR,4106,4354,11236,01.317,552
2023-11-18T10:14:44,42.805,6.029,CST-1368DR,4106,4354,11236,01.317,553
2023-11-18T10:17:45,42.805,6.029,CST-1368DR,4106,4354,11237,01.316,553
2023-11-18T10:20:47,42.805,6.029,CST-1368DR,4106,4354,11238,01.316,553
2023-11-18T10:23:48,42.805,6.029,CST-1368DR,4106,4353,11233,01.318,553
2023-11-18T10:26:50,42.805,6.029,CST-1368DR,4106,4348,11222,01.322,553
2023-11-18T10:29:52,42.805,6.029,CST-1368DR,4106,4355,11240,01.315,553
2023-11-18T10:32:53,42.805,6.029,CST-1368DR,4106,4354,11237,01.316,553
2023-11-18T10:35:55,42.805,6.029,CST-1368DR,4106,4353,11234,01.317,552
2023-11-18T10:38:56,42.805,6.029,CST-1368DR,4106,4354,11237,01.316,553
2023-11-18T10:41:58,42.805,6.029,CST-1368DR,4106,4354,11237,01.316,553
2023-11-18T10:44:59,42.805,6.029,CST-1368DR,4106,4354,11237,01.316,553
2023-11-18T10:48:01,42.805,6.029,CST-1368DR,4106,4355,11240,01.315,553
2023-11-18T10:51:03,42.805,6.029,CST-1368DR,4106,4353,11235,01.317,553
2023-11-18T10:54:04,42.805,6.029,CST-1368DR,4106,4353,11233,01.318,553
2023-11-18T10:57:06,42.805,6.029,CST-1368DR,4106,4353,11235,01.317,553
2023-11-18T11:00:07,42.805,6.029,CST-1368DR,4106,4353,11233,01.318,553
2023-11-18T11:03:09,42.805,6.029,CST-1368DR,4106,4353,11234,01.317,553
2023-11-18T11:06:10,42.805,6.029,CST-1368DR,4106,4352,11232,01.318,553
2023-11-18T11:09:12,42.805,6.029,CST-1368DR,4106,4352,11232,01.318,553
2023-11-18T11:12:14,42.805,6.029,CST-1368DR,4106,4353,11233,01.318,553
2023-11-18T11:15:15,42.805,6.029,CST-1368DR,4106,4352,11231,01.318,553
2023-11-18T11:18:17,42.805,6.029,CST-1368DR,4106,4353,11233,01.318,553
2023-11-18T11:21:18,42.805,6.029,CST-1368DR,4106,4353,11233,01.318,553
2023-11-18T11:24:20,42.805,6.029,CST-1368DR,4106,4352,11233,01.318,553
2023-11-18T11:27:22,42.805,6.029,CST-1368DR,4106,4352,11232,01.318,553
2023-11-18T11:30:25,42.805,6.029,CST-1368DR,4106,4354,11238,01.316,553
2023-11-18T11:33:26,42.805,6.029,CST-1368DR,4106,4354,11236,01.317,553
2023-11-18T11:36:28,42.805,6.029,CST-1368DR,4106,4353,11233,01.318,553
2023-11-18T11:39:29,42.805,6.029,CST-1368DR,4106,4352,11233,01.318,553
2023-11-18T11:42:31,42.805,6.029,CST-1368DR,4106,4352,11231,01.318,553
2023-11-18T11:45:33,42.805,6.029,CST-1368DR,4106,4352,11232,01.318,553
2023-11-18T11:48:34,42.805,6.029,CST-1368DR,4106,4353,11235,01.317,553
2023-11-18T11:51:36,42.805,6.029,CST-1368DR,4106,4353,11234,01.317,553
2023-11-18T11:54:37,42.805,6.029,CST-1368DR,4106,4352,11232,01.318,553
2023-11-18T11:57:39,42.805,6.029,CST-1368DR,4106,4351,11229,01.319,553
2023-11-18T12:00:40,42.805,6.029,CST-1368DR,4106,4329,11171,01.340,553
2023-11-18T12:03:42,42.805,6.029,CST-1368DR,4106,4351,11228,01.320,553
2023-11-18T12:06:44,42.805,6.029,CST-1368DR,4106,4351,11228,01.320,553
2023-11-18T12:09:45,42.805,6.029,CST-1368DR,4106,4350,11227,01.320,553
2023-11-18T12:12:47,42.805,6.029,CST-1368DR,4106,4351,11229,01.319,552
2023-11-18T12:15:48,42.805,6.029,CST-1368DR,4106,4351,11228,01.320,553
2023-11-18T12:18:50,42.805,6.029,CST-1368DR,4106,4351,11229,01.319,553
2023-11-18T12:21:51,42.805,6.029,CST-1368DR,4106,4351,11229,01.319,553
2023-11-18T12:24:53,42.805,6.029,CST-1368DR,4106,4351,11229,01.319,553
2023-11-18T12:27:55,42.805,6.029,CST-1368DR,4106,4350,11227,01.320,553
2023-11-18T12:30:56,42.805,6.029,CST-1368DR,4106,4349,11225,01.321,553
2023-11-18T12:33:58,42.805,6.029,CST-1368DR,4106,4350,11227,01.320,553
2023-11-18T12:36:59,42.805,6.029,CST-1368DR,4106,4350,11227,01.320,553
2023-11-18T12:40:01,42.805,6.029,CST-1368DR,4106,4353,11233,01.318,553
2023-11-18T12:43:03,42.805,6.029,CST-1368DR,4106,4352,11232,01.318,553
2023-11-18T12:46:04,42.805,6.029,CST-1368DR,4106,4351,11229,01.319,553
2023-11-18T12:49:06,42.805,6.029,CST-1368DR,4106,4350,11227,01.320,553
2023-11-18T12:52:07,42.805,6.029,CST-1368DR,4106,4350,11227,01.320,553
2023-11-18T12:55:09,42.805,6.029,CST-1368DR,4106,4352,11231,01.318,553
2023-11-18T12:58:10,42.805,6.029,CST-1368DR,4106,4350,11226,01.320,553
2023-11-18T13:01:12,42.805,6.029,CST-1368DR,4106,4349,11225,01.321,553
2023-11-18T13:04:14,42.805,6.029,CST-1368DR,4106,4350,11227,01.320,553
2023-11-18T13:07:15,42.805,6.029,CST-1368DR,4106,4350,11226,01.320,553
2023-11-18T13:10:17,42.805,6.029,CST-1368DR,4106,4349,11223,01.321,553
2023-11-18T13:13:18,42.805,6.029,CST-1368DR,4106,4349,11223,01.321,553
2023-11-18T13:16:20,42.805,6.029,CST-1368DR,4106,4348,11222,01.322,553
2023-11-18T13:19:21,42.805,6.029,CST-1368DR,4106,4350,11226,01.320,553
2023-11-18T13:22:23,42.805,6.029,CST-1368DR,4106,4349,11223,01.321,553
2023-11-18T13:25:25,42.805,6.029,CST-1368DR,4106,4346,11216,01.324,553
2023-11-18T13:28:26,42.805,6.029,CST-1368DR,4106,4348,11221,01.322,553
2023-11-18T13:31:28,42.805,6.029,CST-1368DR,4106,4349,11223,01.321,553
2023-11-18T13:34:30,42.805,6.029,CST-1368DR,4106,4348,11222,01.322,553
2023-11-18T13:37:31,42.805,6.029,CST-1368DR,4106,4349,11223,01.321,553
2023-11-18T13:40:33,42.805,6.029,CST-1368DR,4106,4348,11221,01.322,553
2023-11-18T13:43:34,42.805,6.029,CST-1368DR,4106,4348,11222,01.322,553
2023-11-18T13:46:36,42.805,6.029,CST-1368DR,4106,4349,11225,01.321,553
2023-11-18T13:49:37,42.805,6.029,CST-1368DR,4106,4348,11221,01.322,553
2023-11-18T13:52:39,42.805,6.029,CST-1368DR,4106,4348,11222,01.322,553
2023-11-18T13:55:41,42.805,6.029,CST-1368DR,4106,4348,11222,01.322,553
2023-11-18T13:58:42,42.805,6.029,CST-1368DR,4106,4351,11228,01.320,553
2023-11-18T14:01:44,42.805,6.029,CST-1368DR,4106,4348,11222,01.322,553
2023-11-18T14:04:45,42.805,6.029,CST-1368DR,4106,4349,11223,01.321,553
2023-11-18T14:07:47,42.805,6.029,CST-1368DR,4106,4349,11223,01.321,553
2023-11-18T14:10:49,42.805,6.029,CST-1368DR,4106,4349,11224,01.321,553
2023-11-18T14:13:50,42.805,6.029,CST-1368DR,4106,4349,11223,01.321,553
2023-11-18T14:16:52,42.805,6.029,CST-1368DR,4106,4349,11224,01.321,553
2023-11-18T14:19:53,42.805,6.029,CST-1368DR,4106,4350,11227,01.320,553
2023-11-18T14:22:55,42.805,6.029,CST-1368DR,4106,4349,11224,01.321,553
2023-11-18T14:25:56,42.805,6.029,CST-1368DR,4106,4350,11226,01.320,553
2023-11-18T14:28:58,42.805,6.029,CST-1368DR,4106,4349,11225,01.321,553
2023-11-18T14:32:00,42.805,6.029,CST-1368DR,4106,4351,11229,01.319,553
2023-11-18T14:35:01,42.805,6.029,CST-1368DR,4106,4351,11228,01.320,553
2023-11-18T14:38:03,42.805,6.029,CST-1368DR,4106,4352,11231,01.318,553
2023-11-18T14:41:04,42.805,6.029,CST-1368DR,4106,4351,11230,01.319,553
2023-11-18T14:44:06,42.805,6.029,CST-1368DR,4106,4350,11227,01.320,553
2023-11-18T14:47:07,42.805,6.029,CST-1368DR,4106,4351,11230,01.319,553
2023-11-18T14:50:09,42.805,6.029,CST-1368DR,4106,4349,11225,01.321,553
2023-11-18T14:53:11,42.805,6.029,CST-1368DR,4106,4351,11229,01.319,553
2023-11-18T14:56:12,42.805,6.029,CST-1368DR,4106,4350,11227,01.320,553
2023-11-18T14:59:14,42.805,6.029,CST-1368DR,4106,4351,11229,01.319,553
2023-11-18T15:02:15,42.805,6.029,CST-1368DR,4106,4351,11229,01.319,553
2023-11-18T15:05:17,42.805,6.029,CST-1368DR,4106,4350,11227,01.320,553
2023-11-18T15:08:19,42.805,6.029,CST-1368DR,4106,4349,11224,01.321,553
2023-11-18T15:11:20,42.805,6.029,CST-1368DR,4106,4351,11228,01.320,553
2023-11-18T15:14:22,42.805,6.029,CST-1368DR,4106,4351,11229,01.319,553
2023-11-18T15:17:23,42.805,6.029,CST-1368DR,4106,4350,11227,01.320,553
2023-11-18T15:20:25,42.805,6.029,CST-1368DR,4106,4351,11229,01.319,553
2023-11-18T15:23:26,42.805,6.029,CST-1368DR,4106,4351,11229,01.319,553
2023-11-18T15:26:28,42.805,6.029,CST-1368DR,4106,4350,11226,01.320,553
2023-11-18T15:29:30,42.805,6.029,CST-1368DR,4106,4350,11227,01.320,553
2023-11-18T15:32:31,42.805,6.029,CST-1368DR,4106,4354,11236,01.317,553
2023-11-18T15:35:33,42.805,6.029,CST-1368DR,4106,4352,11231,01.318,552
2023-11-18T15:38:34,42.805,6.029,CST-1368DR,4106,4350,11227,01.320,553
2023-11-18T15:41:36,42.805,6.029,CST-1368DR,4106,4352,11231,01.318,553
2023-11-18T15:44:38,42.805,6.029,CST-1368DR,4106,4351,11229,01.319,553
2023-11-18T15:47:39,42.805,6.029,CST-1368DR,4106,4351,11229,01.319,553
2023-11-18T15:50:41,42.805,6.029,CST-1368DR,4106,4350,11227,01.320,553
2023-11-18T15:53:42,42.805,6.029,CST-1368DR,4106,4351,11229,01.319,553
2023-11-18T15:56:44,42.805,6.029,CST-1368DR,4106,4350,11227,01.320,553
2023-11-18T15:59:45,42.805,6.029,CST-1368DR,4106,4355,11238,01.316,553
2023-11-18T16:02:47,42.805,6.029,CST-1368DR,4106,4351,11229,01.319,553
2023-11-18T16:05:49,42.805,6.029,CST-1368DR,4106,4351,11229,01.319,553
2023-11-18T16:08:50,42.805,6.029,CST-1368DR,4106,4351,11229,01.319,553
2023-11-18T16:11:52,42.805,6.029,CST-1368DR,4106,4351,11229,01.319,553
2023-11-18T16:14:53,42.805,6.029,CST-1368DR,4106,4351,11228,01.320,553
2023-11-18T16:17:55,42.805,6.029,CST-1368DR,4106,4353,11234,01.317,553
2023-11-18T16:20:56,42.805,6.029,CST-1368DR,4106,4353,11235,01.317,553
2023-11-18T16:23:58,42.805,6.029,CST-1368DR,4106,4350,11227,01.320,553
2023-11-18T16:27:00,42.805,6.029,CST-1368DR,4106,4351,11229,01.319,553
2023-11-18T16:30:01,42.805,6.029,CST-1368DR,4106,4351,11230,01.319,553
2023-11-18T16:33:03,42.805,6.029,CST-1368DR,4106,4351,11230,01.319,553
2023-11-18T16:36:04,42.805,6.029,CST-1368DR,4106,4351,11228,01.320,553